YAMAL 202

Last updated on Tue Jul 01 2025 00:02:44 GMT+0000 (Coordinated Universal Time)

1 28089U 03053A 25181.43998811 -.00000084 00000+0 00000+0 0 9999 2 28089 5.4533 75.2370 0003277 38.3035 127.0732 1.00271634 79174
UTC large
Height (km)
Speed (km/s)
/
Latitude / Longitude
Inclination (degrees)
Orbital Period (minutes)
Azimuth
Elevation
Range (km)
Doppler Factor

Next 0 passes for location: London (51.5072 / 0.1276)

Sorry there are no passes over London.